Lawrence, MA

11:03 AM EDT on August 23, 2017 (GMT -0400)
Lawrence Municipal

Weather History for KLWM - November, 2012

Change the Weather History Date:

Wednesday, November 28, 2012

  Actual Average Record
Temperature  
Mean Temperature 32 °F -  
Max Temperature 37 °F 45 °F 66 °F (2011)
Min Temperature 28 °F 29 °F 9 °F (1936)
Degree Days  
Heating Degree Days 32    
Moisture  
Dew Point 24 °F    
Average Humidity 70    
Maximum Humidity 87    
Minimum Humidity 52    
Precipitation  
Precipitation 0.00 in - - ()
Sea Level Pressure  
Sea Level Pressure 30.19 in    
Wind  
Wind Speed 6 mph (North)    
Max Wind Speed 10 mph    
Max Gust Speed -    
Visibility 10 miles    
Events      
Averages and records for this station are not official NWS values.
T = Trace of Precipitation, MM = Missing Value Source: NWS Daily Summary

Daily Weather History Graph

Daily Weather History Graph

Search for Another Location

Airport or City:

Trip Planner

Search our weather history database for the weather conditions in past years. The results will help you decide how hot, cold, wet, or windy it might be!

Date:

Astronomy

Nov. 28, 2012 Rise Set
Actual Time 6:52 AM EST 4:12 PM EST
Civil Twilight 6:20 AM EST 4:44 PM EST
Nautical Twilight 5:45 AM EST 5:19 PM EST
Astronomical Twilight 5:11 AM EST 5:53 PM EST
Moon 4:25 PM EST (11/28) 6:47 AM EST (11/28)
Length of Visible Light 10h 23m
Length of Day
9h 20m
Full, 100% of the Moon is Illuminated
Nov 28
Full
Dec 6
Last Quarter
Dec 13
New
Dec 20
First Quarter
Dec 28
Full

Hourly Weather History & Observations

Time (EST) Temp. Windchill Dew Point Humidity Pressure Visibility Wind Dir Wind Speed Gust Speed Precip Events Conditions
12:08 AM 33.8 °F 29.6 °F 30.2 °F 87% 30.25 in 9.0 mi North 4.6 mph - N/A   Overcast
12:15 AM 33.8 °F 29.6 °F 30.2 °F 87% 30.25 in 10.0 mi North 4.6 mph - N/A   Overcast
12:54 AM 33.1 °F 25.5 °F 28.0 °F 82% 30.23 in 10.0 mi North 9.2 mph - N/A   Overcast
1:54 AM 32.0 °F 24.8 °F 27.0 °F 82% 30.22 in 10.0 mi North 8.1 mph - N/A   Overcast
2:36 AM 32.0 °F 25.6 °F 26.6 °F 80% 30.22 in 10.0 mi North 6.9 mph - N/A   Overcast
2:54 AM 32.0 °F 24.8 °F 26.1 °F 79% 30.22 in 10.0 mi North 8.1 mph - N/A   Overcast
3:54 AM 32.0 °F 24.8 °F 26.1 °F 79% 30.21 in 10.0 mi NNE 8.1 mph - N/A   Overcast
4:30 AM 32.0 °F 23.6 °F 24.8 °F 75% 30.20 in 10.0 mi North 10.4 mph - N/A   Overcast
4:43 AM 32.0 °F 24.8 °F 24.8 °F 75% 30.20 in 10.0 mi North 8.1 mph - N/A   Overcast
4:54 AM 32.0 °F 24.2 °F 24.1 °F 73% 30.20 in 10.0 mi North 9.2 mph - N/A   Overcast
5:54 AM 32.0 °F 25.6 °F 23.0 °F 69% 30.22 in 10.0 mi North 6.9 mph - N/A   Overcast
6:54 AM 32.0 °F 26.4 °F 23.0 °F 69% 30.23 in 10.0 mi North 5.8 mph - N/A   Overcast
7:54 AM 32.0 °F 24.8 °F 21.9 °F 66% 30.23 in 10.0 mi North 8.1 mph - N/A   Overcast
8:54 AM 33.1 °F 25.5 °F 23.0 °F 66% 30.22 in 10.0 mi NNE 9.2 mph - N/A   Overcast
9:54 AM 33.1 °F 25.5 °F 21.9 °F 64% 30.22 in 10.0 mi NNE 9.2 mph - N/A   Overcast
10:54 AM 33.1 °F 26.9 °F 21.9 °F 64% 30.20 in 10.0 mi North 6.9 mph - N/A   Overcast
11:54 AM 34.0 °F 28.0 °F 23.0 °F 64% 30.18 in 10.0 mi NNE 6.9 mph - N/A   Overcast
12:54 PM 35.1 °F 30.1 °F 21.9 °F 59% 30.16 in 10.0 mi North 5.8 mph - N/A   Overcast
1:54 PM 36.0 °F 32.1 °F 21.0 °F 55% 30.15 in 10.0 mi NNW 4.6 mph - N/A   Mostly Cloudy
2:54 PM 37.0 °F 32.4 °F 21.0 °F 52% 30.15 in 10.0 mi NNE 5.8 mph - N/A   Partly Cloudy
3:54 PM 35.1 °F 32.2 °F 21.0 °F 57% 30.14 in 10.0 mi ENE 3.5 mph - N/A   Partly Cloudy
4:54 PM 34.0 °F - 21.0 °F 59% 30.14 in 10.0 mi Calm Calm - N/A   Mostly Cloudy
5:54 PM 32.0 °F - 21.9 °F 66% 30.17 in 10.0 mi Calm Calm - N/A   Scattered Clouds
6:54 PM 32.0 °F - 21.9 °F 66% 30.17 in 10.0 mi Calm Calm - N/A   Mostly Cloudy
7:54 PM 30.0 °F - 21.9 °F 72% 30.17 in 10.0 mi Calm Calm - N/A   Scattered Clouds
8:54 PM 28.9 °F - 21.9 °F 75% 30.17 in 10.0 mi Calm Calm - N/A   Clear
9:54 PM 30.0 °F 26.5 °F 21.9 °F 72% 30.17 in 10.0 mi South 3.5 mph - N/A   Clear
10:54 PM 28.0 °F - 21.0 °F 75% 30.17 in 10.0 mi Calm Calm - N/A   Clear
11:54 PM 28.0 °F 22.8 °F 19.9 °F 72% 30.16 in 10.0 mi SSW 4.6 mph - N/A   Clear